Overview Statistics Trail Chart Weather Telemetry Raw packets
 

This is the latest recevied weather packets stored in our database for station/object HA2SKA-1. If no packets are shown the sender has not sent any weather packets the latest 10 day(s).

<< 28 29 30 31 32 33 34 >>
Time Temp. Humidity Pressure Rain* Wind** Luminosity Snow
1787991609 24.44° C 81% 1019.9 hPa - - - -
1787990709 23.89° C 83% 1019.9 hPa - - - -
1787989808 25° C 79% 1019.7 hPa - - - -
1787988908 23.89° C 85% 1018.9 hPa - - - -
1787988008 23.33° C 88% 1018.3 hPa - - - -
1787987108 23.89° C 83% 1018.3 hPa - - - -
1787986208 23.89° C 86% 1018.2 hPa - - - -
1787985308 24.44° C 84% 1017.9 hPa - - - -
1787984408 23.33° C 96% 1017.7 hPa - - - -
1787983519 22.78° C 100% 1017.4 hPa - - - -
1787982608 22.78° C 100% 1017.9 hPa - - - -
1787980807 22.22° C 100% 1017.9 hPa - - - -
1787979907 22.22° C 100% 1017.3 hPa - - - -
1787979007 22.22° C 100% 1017.2 hPa - - - -
1787978107 22.22° C 100% 1016.9 hPa - - - -
1787977207 22.22° C 100% 1017 hPa - - - -
1787976307 22.78° C 100% 1016.9 hPa - - - -
1787975407 22.22° C 100% 1017 hPa - - - -
1787974507 22.22° C 100% 1016.7 hPa - - - -
1787973607 22.22° C 100% 1016.6 hPa - - - -
1787972707 32.22° C 100% 1016.9 hPa - - - -
1787971807 22.22° C 100% 1017.2 hPa - - - -
1787970906 23.33° C 100% 1017 hPa - - - -
1787970006 24.44° C 100% 1016.6 hPa - - - -
1787969106 24.44° C 100% 1016.1 hPa - - - -

* Rain since midnight (hover to see other rain measurements)
** Current wind speed in m/s (hover to see current wind gust speed)